Regional Weather Roundup
Issued by NWS

Home | Current Version | Previous Version | Text Only | Print | Product List | Glossary On
Versions: 1 2 3 4 5 6 7 8 9 10 11 12 13 14 15 16 17 18 19 20 21 22 23 24 25 26 27 28 29 30 31 32 33 34 35 36 37 38 39 40 41 42 43 44 45 46 47 48 49 50
000
ASUS43 KOAX 211010
RWRNE

WEATHER ROUNDUP FOR NEBRASKA
NATIONAL WEATHER SERVICE OMAHA NE
500 AM CDT TUE APR 21 2015

NOTES: SATELLITE DATA IS BEING USED TO AUGMENT CLOUD COVER ABOVE
       12000 FEET.
       "FAIR" INDICATES FEW OR NO CLOUDS BELOW 12,000 FEET WITH NO
       SIGNIFICANT WEATHER AND/OR OBSTRUCTIONS TO VISIBILITY.

  * THESE STATIONS DO NOT REPORT WEATHER SUCH AS RAIN...SNOW OR FOG.

NEZ001>004-019>022-054>056-211100-
NEBRASKA PANHANDLE

CITY           SKY/WX    TMP DP  RH WIND       PRES   REMARKS
SCOTTSBLUFF    CLEAR     29  25  85 N6        29.92S WCI  23
ALLIANCE       CLEAR     24  21  88 W8        29.91S WCI  15
CHADRON        CLEAR     25  21  85 W5        29.89F WCI  19
KIMBALL        MOCLDY    32  28  87 W5        29.89F WCI  27
SIDNEY         CLEAR     31  26  82 NW12      29.92S WCI  22
$$

NEZ057>060-069>072-079>082-211100-
SOUTHWEST NEBRASKA

CITY           SKY/WX    TMP DP  RH WIND       PRES   REMARKS
NORTH PLATTE   CLEAR     26  24  92 NW5       29.90S WCI  20
IMPERIAL       CLEAR     33  26  75 W3        29.90S
LEXINGTON      CLEAR     32  29  90 CALM      29.90S
MCCOOK         PTCLDY    36  30  79 W3        29.89F
OGALLALA       CLEAR     28  25  91 W5        29.90S WCI  22
$$

NEZ005>010-023>029-035>040-094-211100-
NORTH CENTRAL NEBRASKA

CITY           SKY/WX    TMP DP  RH WIND       PRES   REMARKS
VALENTINE      CLEAR     30  23  75 W5        29.84F WCI  25
AINSWORTH      CLEAR     33  25  72 W8        29.84F WCI  26
BROKEN BOW     PTCLDY    36  26  67 CALM      29.87S
O`NEILL        CLEAR     33  25  70 W9        29.82F WCI  26
ORD            MOCLDY    36  28  73 W6        29.85S WCI  31
THEDFORD       CLEAR     31  26  83 W5        29.89S WCI  26
$$

NEZ041-046>049-061>064-073>077-083>087-211100-
SOUTH CENTRAL NEBRASKA

CITY           SKY/WX    TMP DP  RH WIND       PRES   REMARKS
GRAND ISLAND   CLOUDY    40  31  70 W8        29.88S WCI  34
AURORA         CLOUDY    41  32  70 W7        29.87S
HASTINGS       PTCLDY    36  28  73 W6        29.87F WCI  31
HEBRON         MOCLDY    37  29  71 W5        29.88S WCI  34
HOLDREGE       CLOUDY    36  29  76 NW5       29.89S WCI  32
KEARNEY *      CLEAR     34  27  75 NW6       29.89S WCI  29
YORK           CLOUDY    41  32  70 W10       29.87S
$$

NEZ011>018-030>034-042>045-211100-
NORTHEAST NEBRASKA

CITY           SKY/WX    TMP DP  RH WIND       PRES   REMARKS
NORFOLK        CLEAR     38  23  55 W9        29.80F WCI  31
ALBION         CLEAR     39  20  46 NW3       29.84S
BLAIR          CLEAR     38  23  55 W7        29.81S WCI  33
COLUMBUS *     CLEAR     37  21  52 W8        29.85F WCI  31
FREMONT        CLEAR     38  28  69 W9        29.82F WCI  31
TEKAMAH        CLEAR     37  23  56 W13       29.79F WCI  29
WAYNE          CLEAR     37  21  53 W12       29.80S WCI  29
$$

NEZ050>053-065>068-078-088>093-211100-
SOUTHEAST NEBRASKA

CITY           SKY/WX    TMP DP  RH WIND       PRES   REMARKS
LINCOLN        PTCLDY    44  30  57 W7        29.86S
OMAHA EPPLEY   PTCLDY    42  24  49 W12       29.81S
BEATRICE       PTCLDY    41  32  70 W7        29.86F
FALLS CITY     CLOUDY    45  31  58 W14       29.84R
NEBRASKA CITY  PTCLDY    40  27  59 W10       29.84R WCI  33
PLATTSMOUTH    CLEAR     38  27  62 W8        29.82S WCI  32
$$

NEZ044-045-051>053-067-211100-
OMAHA AREA

CITY           SKY/WX    TMP DP  RH WIND       PRES   REMARKS
OMAHA EPPLEY   PTCLDY    42  24  49 W12       29.81S
BLAIR          CLEAR     38  23  55 W7        29.81S WCI  33
FREMONT        CLEAR     38  28  69 W9        29.82F WCI  31
MILLARD        CLEAR     41  26  54 CALM      29.83R
OFFUTT AFB     CLEAR     40  24  54 SW6       29.81S
PLATTSMOUTH    CLEAR     38  27  62 W8        29.82S WCI  32
WAHOO          FAIR      40  27  59 W12       29.83S WCI  34
$$



USA.gov is the U.S. government's official web portal to all federal, state and local government web resources and services.